User: anonymous   Login
Location: Unspecified
(0.0000°N, 0.0000°E)
Time: 02:55:31
(UTC+00:00)
Language:

COSMOS 2471 (GLONASS) - Orbit

View from above orbital plane
View from above orbital plane
View from above satellite
View from above satellite

Ground track
Ground track

The orbit data is extracted from the following two-line orbital elements,

1 37372U 11009A   17232.29037396 +.00000002 +00000-0 +00000-0 0  9999
2 37372 065.4316 062.4667 0006728 225.3834 269.3289 02.13107744050418
Epoch (UTC): 20 August 2017 06:58:08
Eccentricity: 0.0006728
inclination: 65.4316°
perigee height: 19112 km
apogee height: 19146 km
right ascension of ascending node: 62.4667°
argument of perigee: 225.3834°
revolutions per day: 2.13107744
mean anomaly at epoch: 269.3289°
orbit number at epoch: 5041

The dashed part of the orbit path shows where the satellite is in the earth's shadow,  

DLR